Regional Weather Roundup
Issued by NWS San Diego, CA

Home | Current Version | Previous Version | Text Only | Print | Product List | Glossary On
Versions: 1 2 3 4 5 6 7 8 9 10 11 12 13 14 15 16 17 18 19 20 21 22 23 24 25 26 27 28 29 30 31 32 33 34 35 36 37 38 39 40 41 42 43 44 45 46 47 48 49 50
000
ASUS46 KSGX 210511
RWRSGX

SAN DIEGO HOURLY WEATHER ROUNDUP
NATIONAL WEATHER SERVICE SAN DIEGO CA
1000 PM PDT MON APR 20 2015

NOTE: "FAIR" INDICATES FEW OR NO CLOUDS BELOW 12,000 FEET WITH NO
SIGNIFICANT WEATHER AND/OR OBSTRUCTIONS TO VISIBILITY.

CAZ042-043-060-061-PZZ750-775-210600-

GREATER SAN DIEGO AREA

CITY           SKY/WX    TMP DP  RH WIND       PRES   REMARKS
LINDBERGH FLD  MOCLDY    62  48  60 W5        29.94R
POINT LOMA       N/A     57  48  71 W5          N/A
CHULA VISTA      N/A     60  52  77 CALM      29.85R
IMPERIAL BEACH MOCLDY    57  48  72 CALM      29.93R
BROWN FIELD    CLEAR     56  49  77 W3        29.92R
MIRAMAR MCAS   MOCLDY    62  48  60 W3        29.92R
MONTGOMERY FLD CLOUDY    60  50  69 SW6       29.92R

$$

NORTH SAN DIEGO COUNTY

CITY           SKY/WX    TMP DP  RH WIND       PRES   REMARKS
CAMP PENDLETON PTCLDY    58  48  69 CALM      29.91R
OCEANSIDE AP   MOCLDY    60  49  66 W3        29.91R
VISTA            N/A     57  50  78 CALM      29.90R
CARLSBAD       CLOUDY    60  49  66 S3        29.91R
FALLBROOK        N/A     55  54  94 CALM      29.90R
SAN MARCOS       N/A     58  51  78 CALM      29.90R
POWAY            N/A     58  51  76 NW1       29.94R

$$

EAST SAN DIEGO COUNTY

CITY           SKY/WX    TMP DP  RH WIND       PRES   REMARKS
RAMONA         CLOUDY    53  48  83 NW3       29.92R
LA MESA          N/A     58  51  76 CALM      29.86R
DESCANSO N       N/A     48  43  82 CALM      29.78R
MT. LAGUNA OBS   N/A     49  10  20 W3        29.56R
CAMPO            N/A     49  46  90 S7        29.89R

$$

ORANGE COUNTY AND THE LOS ANGELES BASIN

CITY           SKY/WX    TMP DP  RH WIND       PRES   REMARKS
JOHN WAYNE AP  CLOUDY    59  51  75 W3        29.91R
LAKE FOREST FR   N/A     57  49  74 CALM      29.80S
SANTA ANA        N/A     60  53  76 CALM      29.86R
HUNTINGTON BCH   N/A     58  53  83 CALM      29.92R
LOS ALAMITOS   FAIR      57  52  83 S5        29.90R
FULLERTON      MOCLDY    60  32  34 S7        29.90R
LONG BEACH     PTCLDY    59  51  75 CALM      29.90R
L.A. AP        PTCLDY    57  52  83 SW5       29.90S
L.A. DOWNTOWN  CLEAR     58  52  80 CALM      29.89S

$$

THE INLAND EMPIRE

CITY           SKY/WX    TMP DP  RH WIND       PRES   REMARKS
CORONA         CLEAR     56  50  80 W7        29.90R
CHINO          CLEAR     57  49  74 W9        29.91R
ONTARIO        CLEAR     57  48  72 W10       29.89R
RIVERSIDE AP   CLEAR     58  48  69 W5        29.90R
RIV CYN CREST    N/A     59  56  92 NW1         N/A
MORENO VALLEY    N/A     58  51  79 W2        29.87R
MARCH ARB      CLEAR     55  49  78 S6        29.90R
HORSETHIEF CYN   N/A     56  45  68 W2        29.86R
MENIFEE          N/A     56  52  88 S3        29.95R
HEMET EAST       N/A     55  46  72 CALM      29.88R
FRENCH VALLEY  FAIR      54  48  82 SW7       29.91S
TEMECULA         N/A     56  52  87 SW1       29.87R

$$

SAN BERNARDINO AND RIVERSIDE COUNTY MOUNTAINS

CITY           SKY/WX    TMP DP  RH WIND       PRES   REMARKS
BIG BEAR AP    CLEAR     39  19  45 CALM      30.01S

$$

SOUTHERN DESERT INCLUDING THE COACHELLA VALLEY

CITY           SKY/WX    TMP DP  RH WIND       PRES   REMARKS
PALM SPRINGS   CLEAR     75  45  34 NW15      29.75R
THOUSAND PALMS   N/A     72  47  40 NW10      29.72R
THERMAL        CLEAR     76  47  35 NW13      29.70R
BLYTHE         CLEAR     77  22  13 S6        29.73R
IMPERIAL AP    CLEAR     71  47  42 SW6       29.72R
EL CENTRO NAS  PTCLDY    73  45  36 W14       29.73R
YUMA AZ        CLEAR     71  33  24 S6        29.74R
MEXICALI       CLEAR     68  46  45 E7        29.72R

$$

UPPER DESERT

CITY           SKY/WX    TMP DP  RH WIND       PRES   REMARKS
VICTORVILLE AP CLEAR     61  34  36 S5        29.87R
HESPERIA         N/A     61  44  53 SW12      29.88R
APPLE VALLEY     N/A     62  42  47 CALM      29.94R
PALMDALE       CLEAR     62  33  33 SW18      29.84S
LANCASTER      CLEAR     60  38  43 SW16      29.83R
EDWARDS AFB    PTCLDY    62  36  36 SW15      29.80R
DAGGETT        CLEAR     71  31  22 VRB5      29.79R
29 PALMS N     CLEAR     70  30  22 SW12      29.85R
NEEDLES        CLEAR     81  16   9 W12       29.72R

$$

REGIONAL REPORTS

CITY           SKY/WX    TMP DP  RH WIND       PRES   REMARKS
SANTA BARBARA  CLEAR     56  52  86 SE6       29.86R
SANDBERG       CLEAR     53  34  48 SW8       29.93R
MT. WILSON       N/A     48  12  23 W2          N/A
LAS VEGAS NV   PTCLDY    79  16   9 S14       29.72R
PHOENIX AZ     CLEAR     80  24  12 W9        29.73R
TIJUANA        PTCLDY    57  46  67 W5        29.94R
ENSENADA NW      N/A     61  32  33 W2        29.91R

$$

OFFSHORE ISLANDS

CITY           SKY/WX    TMP DP  RH WIND       PRES   REMARKS
CATALINA ARPT  CLOUDY    52  48  86 SW7       29.92R
SAN NICOLAS IS CLOUDY   N/A N/A N/A W10       29.91R

$$

MARINE AND OFFSHORE BUOY REPORTS

STATION/POSITION SKY/WX   TEMP    WIND        PRES    SWELL
                          AIR SEA DIR/SP/G            HT/PER/DIR
                          (F)     (DEG/KT/KT) (MB)    (FT/S/D)
TANNER BANKS               60 62  330/ 10/ 14 1012.8R   5/310/12
S CLEMENTE BASIN           60 65  270/  4/  6 1013.0R   3/200/14
SAN NICOLAS IS.               59                N/A     3/220/13
SO. S. ROSA ISLA           58 59  310/ 16/ 19 1011.5R   3/14
W. S. BARBARA CH           56 55  320/ 16/ 17 1011.5R   5/210/14
S. MONICA BASIN            58 62  240/  4/  8 1012.4R   3/220/14
S PEDRO CHANNEL               61                N/A     2/260/12
DANA POINT                    64                N/A     3/180/14
CMP PENDLETON NS              62                N/A     2/200/14
OCEANSIDE OFFSHR              63                N/A     2/190/14
TORREY PINES OTR              63                N/A     2/200/13
LA JOLLA 1                 60 56  230/  2/  4 1012.7R
MISSION BAY BUOY              63                N/A     2/210/13
SAN DIEGO BAY                 69              1013.1R
POINT LOMA SOUTH              64                N/A     3/190/14

$$




USA.gov is the U.S. government's official web portal to all federal, state and local government web resources and services.